| time (UTC) | temp F | wind direction | speed knots | gust knots | rain 1hr in | rain 24hr in | rain mn in | humidity % | barometer mb |
| 20260503185244 | 74 | 228 | 14.8 | 20.0 | 0.00 | 0.00 | 0.00 | 27 | 1016.8 |
| 20260503184738 | 75 | 224 | 7.8 | 19.1 | 0.00 | 0.00 | 0.00 | 27 | 1016.7 |
| 20260503184235 | 75 | 208 | 14.8 | 23.5 | 0.00 | 0.00 | 0.00 | 26 | 1016.9 |
| 20260503183731 | 74 | 215 | 18.2 | 24.3 | 0.00 | 0.00 | 0.00 | 28 | 1017.1 |
| 20260503183229 | 74 | 192 | 15.6 | 26.1 | 0.00 | 0.00 | 0.00 | 29 | 1017.0 |
| 20260503182726 | 74 | 229 | 13.9 | 18.2 | 0.00 | 0.00 | 0.00 | 29 | 1017.5 |
| 20260503182225 | 73 | 211 | 15.6 | 22.6 | 0.00 | 0.00 | 0.00 | 30 | 1017.2 |
| 20260503181721 | 74 | 220 | 12.2 | 15.6 | 0.00 | 0.00 | 0.00 | 28 | 1017.6 |
| 20260503181218 | 74 | 224 | 13.9 | 17.4 | 0.00 | 0.00 | 0.00 | 28 | 1017.5 |
| 20260503180715 | 74 | 209 | 14.8 | 20.0 | 0.00 | 0.00 | 0.00 | 28 | 1017.7 |
| 20260503180213 | 72 | 224 | 11.3 | 18.2 | 0.00 | 0.00 | 0.00 | 29 | 1017.7 |
| 20260503175710 | 72 | 218 | 8.7 | 21.7 | 0.00 | 0.00 | 0.00 | 29 | 1017.7 |
| 20260503175208 | 73 | 213 | 13.0 | 18.2 | 0.00 | 0.00 | 0.00 | 29 | 1017.8 |
| 20260503174703 | 72 | 203 | 12.2 | 20.9 | 0.00 | 0.00 | 0.00 | 31 | 1017.9 |
| 20260503174201 | 73 | 223 | 15.6 | 18.2 | 0.00 | 0.00 | 0.00 | 30 | 1018.0 |
| 20260503173656 | 71 | 216 | 13.9 | 18.2 | 0.00 | 0.00 | 0.00 | 32 | 1018.0 |
| 20260503173152 | 71 | 230 | 16.5 | 24.3 | 0.00 | 0.00 | 0.00 | 31 | 1018.1 |
| 20260503172649 | 71 | 229 | 12.2 | 20.9 | 0.00 | 0.00 | 0.00 | 32 | 1018.4 |
| 20260503172147 | 71 | 205 | 13.9 | 20.0 | 0.00 | 0.00 | 0.00 | 30 | 1018.5 |
| 20260503171643 | 71 | 203 | 13.0 | 20.0 | 0.00 | 0.00 | 0.00 | 33 | 1018.7 |
| 20260503171141 | 71 | 223 | 10.4 | 24.3 | 0.00 | 0.00 | 0.00 | 32 | 1018.5 |
| 20260503170637 | 70 | 208 | 9.6 | 18.2 | 0.00 | 0.00 | 0.00 | 33 | 1018.7 |
| 20260503170134 | 71 | 210 | 18.2 | 21.7 | 0.00 | 0.00 | 0.00 | 32 | 1018.9 |
| 20260503150526 | 64 | 229 | 10.4 | 18.2 | 0.00 | 0.00 | 0.00 | 47 | 1019.8 |
| 20260503131419 | 51 | 211 | 5.2 | 7.8 | 0.00 | 0.00 | 0.00 | 69 | 1020.4 |
| 20260503130915 | 51 | 220 | 3.5 | 7.0 | 0.00 | 0.00 | 0.00 | 71 | 1020.1 |
| 20260503130413 | 50 | 216 | 5.2 | 13.0 | 0.00 | 0.00 | 0.00 | 71 | 1020.2 |
| 20260503110812 | 47 | 229 | 1.7 | 6.1 | 0.00 | 0.00 | 0.00 | 76 | 1019.6 |
| 20260503110309 | 46 | 192 | 1.7 | 2.6 | 0.00 | 0.00 | 0.00 | 76 | 1019.6 |
| 20260503100235 | 50 | 224 | 1.7 | 9.6 | 0.00 | 0.00 | 0.00 | 70 | 1020.0 |
| 20260503090154 | 50 | 239 | 5.2 | 7.8 | 0.00 | 0.00 | 0.00 | 63 | 1019.7 |
| 20260503081629 | 51 | 220 | 2.6 | 9.6 | 0.00 | 0.00 | 0.00 | 58 | 1019.9 |
| 20260503081126 | 52 | 211 | 4.3 | 11.3 | 0.00 | 0.00 | 0.00 | 58 | 1019.9 |
| 20260503080622 | 52 | 236 | 4.3 | 12.2 | 0.00 | 0.00 | 0.00 | 57 | 1019.8 |
| 20260503080119 | 52 | 226 | 9.6 | 11.3 | 0.00 | 0.00 | 0.00 | 56 | 1019.8 |
| 20260503072556 | 52 | 223 | 5.2 | 7.8 | 0.00 | 0.00 | 0.00 | 53 | 1020.1 |
| 20260503072054 | 52 | 214 | 3.5 | 9.6 | 0.00 | 0.00 | 0.00 | 52 | 1020.1 |
| 20260503071550 | 51 | 206 | 6.1 | 7.8 | 0.00 | 0.00 | 0.00 | 52 | 1020.2 |
| 20260503071047 | 51 | 191 | 3.5 | 4.3 | 0.00 | 0.00 | 0.00 | 51 | 1020.2 |
| 20260503070543 | 51 | 197 | 3.5 | 5.2 | 0.00 | 0.00 | 0.00 | 51 | 1020.2 |
| 20260503055003 | 50 | 212 | 2.6 | 3.5 | 0.00 | 0.00 | 0.00 | 47 | 1020.1 |
| 20260503054458 | 50 | 184 | 3.5 | 4.3 | 0.00 | 0.00 | 0.00 | 46 | 1020.1 |
| 20260503053956 | 51 | 177 | 2.6 | 2.6 | 0.00 | 0.00 | 0.00 | 45 | 1020.0 |
| 20260503053454 | 51 | 183 | 1.7 | 2.6 | 0.00 | 0.00 | 0.00 | 46 | 1020.2 |
| 20260503052950 | 50 | 177 | 1.7 | 3.5 | 0.00 | 0.00 | 0.00 | 46 | 1020.1 |
| 20260503052448 | 51 | 180 | 2.6 | 3.5 | 0.00 | 0.00 | 0.00 | 45 | 1020.0 |
| 20260503051944 | 52 | 180 | 2.6 | 3.5 | 0.00 | 0.00 | 0.00 | 43 | 1020.1 |
| 20260503051440 | 53 | 192 | 1.7 | 2.6 | 0.00 | 0.00 | 0.00 | 42 | 1020.2 |
| 20260503050938 | 53 | 187 | 2.6 | 3.5 | 0.00 | 0.00 | 0.00 | 43 | 1020.0 |
| 20260503050433 | 53 | 192 | 3.5 | 4.3 | 0.00 | 0.00 | 0.00 | 42 | 1020.1 |
| 20260503045931 | 53 | 193 | 0.9 | 3.5 | 0.00 | 0.00 | 0.00 | 41 | 1020.0 |
| 20260503045429 | 53 | 196 | 2.6 | 2.6 | 0.00 | 0.00 | 0.00 | 41 | 1020.0 |
| 20260503044925 | 53 | 208 | 2.6 | 3.5 | 0.00 | 0.00 | 0.00 | 41 | 1020.0 |
| 20260503044422 | 53 | 205 | 2.6 | 3.5 | 0.00 | 0.00 | 0.00 | 40 | 1020.1 |
| 20260503043920 | 53 | 177 | 0.9 | 1.7 | 0.00 | 0.00 | 0.00 | 41 | 1020.1 |
| 20260503043416 | 53 | 184 | 3.5 | 3.5 | 0.00 | 0.00 | 0.00 | 40 | 1020.0 |
| 20260503042912 | 53 | 186 | 1.7 | 2.6 | 0.00 | 0.00 | 0.00 | 41 | 1019.9 |
| 20260503042409 | 51 | 173 | 0.9 | 3.5 | 0.00 | 0.00 | 0.00 | 41 | 1020.1 |
| 20260503041905 | 49 | 150 | 1.7 | 2.6 | 0.00 | 0.00 | 0.00 | 42 | 1020.0 |
| 20260503041402 | 49 | 159 | 1.7 | 2.6 | 0.00 | 0.00 | 0.00 | 42 | 1020.0 |
| 20260503040900 | 49 | 167 | 1.7 | 2.6 | 0.00 | 0.00 | 0.00 | 42 | 1020.0 |
| 20260503040357 | 47 | 142 | 1.7 | 2.6 | 0.00 | 0.00 | 0.00 | 43 | 1020.1 |
| 20260503035854 | 48 | 146 | 2.6 | 2.6 | 0.00 | 0.00 | 0.00 | 41 | 1020.1 |
| 20260503035351 | 49 | 144 | 2.6 | 2.6 | 0.00 | 0.00 | 0.00 | 41 | 1019.9 |
| 20260503034848 | 48 | 162 | 1.7 | 2.6 | 0.00 | 0.00 | 0.00 | 41 | 1020.1 |
| 20260503034346 | 48 | 153 | 2.6 | 2.6 | 0.00 | 0.00 | 0.00 | 41 | 1020.1 |
| 20260503033843 | 49 | 142 | 1.7 | 2.6 | 0.00 | 0.00 | 0.00 | 40 | 1020.1 |
| 20260503033340 | 49 | 161 | 2.6 | 2.6 | 0.00 | 0.00 | 0.00 | 40 | 1020.0 |
| 20260503032838 | 49 | 136 | 1.7 | 2.6 | 0.00 | 0.00 | 0.00 | 38 | 1020.0 |
| 20260503032337 | 50 | 152 | 2.6 | 2.6 | 0.00 | 0.00 | 0.00 | 38 | 1020.0 |
| 20260503031834 | 51 | 141 | 1.7 | 2.6 | 0.00 | 0.00 | 0.00 | 36 | 1019.9 |
| 20260503031332 | 53 | 145 | 1.7 | 1.7 | 0.00 | 0.00 | 0.00 | 35 | 1019.9 |
| 20260503030828 | 54 | 139 | 1.7 | 2.6 | 0.00 | 0.00 | 0.00 | 35 | 1019.9 |
| 20260503030324 | 55 | 159 | 1.7 | 1.7 | 0.00 | 0.00 | 0.00 | 34 | 1019.8 |
| 20260503025821 | 55 | 154 | 0.9 | 1.7 | 0.00 | 0.00 | 0.00 | 34 | 1019.7 |
| 20260503025319 | 55 | 148 | 1.7 | 2.6 | 0.00 | 0.00 | 0.00 | 33 | 1019.7 |
| 20260503024815 | 56 | 153 | 2.6 | 2.6 | 0.00 | 0.00 | 0.00 | 32 | 1019.7 |
| 20260503024312 | 57 | 145 | 1.7 | 2.6 | 0.00 | 0.00 | 0.00 | 32 | 1019.8 |
| 20260503023809 | 57 | 133 | 1.7 | 1.7 | 0.00 | 0.00 | 0.00 | 32 | 1019.7 |
| 20260503023307 | 58 | 143 | 2.6 | 2.6 | 0.00 | 0.00 | 0.00 | 31 | 1019.7 |
| 20260503022803 | 57 | 136 | 1.7 | 1.7 | 0.00 | 0.00 | 0.00 | 31 | 1019.5 |
| 20260503022304 | 58 | 138 | 1.7 | 2.6 | 0.00 | 0.00 | 0.00 | 32 | 1019.7 |
| 20260503021759 | 58 | 134 | 1.7 | 2.6 | 0.00 | 0.00 | 0.00 | 30 | 1019.6 |
| 20260503021255 | 61 | 149 | 2.6 | 4.3 | 0.00 | 0.00 | 0.00 | 29 | 1019.5 |
| 20260503020753 | 62 | 132 | 1.7 | 1.7 | 0.00 | 0.00 | 0.00 | 29 | 1019.5 |
| 20260503020251 | 62 | 134 | 1.7 | 1.7 | 0.00 | 0.00 | 0.00 | 29 | 1019.6 |
| 20260503015747 | 62 | 149 | 1.7 | 1.7 | 0.00 | 0.00 | 0.00 | 28 | 1019.2 |
| 20260503015244 | 63 | 137 | 1.7 | 1.7 | 0.00 | 0.00 | 0.00 | 28 | 1019.5 |
| 20260503014740 | 64 | 181 | 0.0 | 1.7 | 0.00 | 0.00 | 0.00 | 27 | 1019.1 |
| 20260503014238 | 63 | 208 | 0.9 | 1.7 | 0.00 | 0.00 | 0.00 | 28 | 1019.4 |
| 20260503013735 | 63 | 198 | 0.0 | 1.7 | 0.00 | 0.00 | 0.00 | 28 | 1019.1 |
| 20260503013233 | 63 | 195 | 1.7 | 3.5 | 0.00 | 0.00 | 0.00 | 27 | 1019.1 |
| 20260503012730 | 64 | 180 | 1.7 | 2.6 | 0.00 | 0.00 | 0.00 | 27 | 1019.2 |
| 20260503012227 | 65 | 187 | 2.6 | 3.5 | 0.00 | 0.00 | 0.00 | 26 | 1018.8 |
| 20260503011724 | 66 | 198 | 2.6 | 3.5 | 0.00 | 0.00 | 0.00 | 25 | 1019.0 |
| 20260503011221 | 67 | 204 | 3.5 | 6.1 | 0.00 | 0.00 | 0.00 | 24 | 1019.0 |
| 20260503010717 | 68 | 200 | 5.2 | 7.0 | 0.00 | 0.00 | 0.00 | 24 | 1019.0 |
| 20260503010214 | 68 | 163 | 1.7 | 3.5 | 0.00 | 0.00 | 0.00 | 24 | 1018.9 |
| 20260503005711 | 69 | 201 | 3.5 | 5.2 | 0.00 | 0.00 | 0.00 | 23 | 1019.1 |
| 20260503005209 | 70 | 204 | 2.6 | 4.3 | 0.00 | 0.00 | 0.00 | 22 | 1018.9 |
| 20260503004704 | 71 | 176 | 2.6 | 4.3 | 0.00 | 0.00 | 0.00 | 22 | 1018.8 |
| 20260503004203 | 71 | 195 | 3.5 | 5.2 | 0.00 | 0.00 | 0.00 | 21 | 1018.8 |
| 20260503003659 | 71 | 145 | 1.7 | 3.5 | 0.00 | 0.00 | 0.00 | 22 | 1018.8 |
| 20260503003156 | 72 | 161 | 5.2 | 6.1 | 0.00 | 0.00 | 0.00 | 21 | 1018.8 |
| 20260503002653 | 72 | 168 | 5.2 | 6.1 | 0.00 | 0.00 | 0.00 | 21 | 1018.9 |
| 20260503002150 | 72 | 203 | 7.0 | 7.8 | 0.00 | 0.00 | 0.00 | 22 | 1018.8 |
| 20260503001646 | 71 | 202 | 4.3 | 7.8 | 0.00 | 0.00 | 0.00 | 22 | 1018.7 |
| 20260503001143 | 73 | 214 | 5.2 | 6.1 | 0.00 | 0.00 | 0.00 | 21 | 1018.8 |
| 20260503000641 | 74 | 226 | 2.6 | 5.2 | 0.00 | 0.00 | 0.00 | 20 | 1019.0 |
| 20260503000138 | 73 | 273 | 1.7 | 3.5 | 0.00 | 0.00 | 0.00 | 20 | 1018.9 |
| 20260502235634 | 73 | 236 | 2.6 | 4.3 | 0.00 | 0.00 | 0.00 | 20 | 1019.0 |
| 20260502235133 | 74 | 348 | 1.7 | 3.5 | 0.00 | 0.00 | 0.00 | 20 | 1018.8 |
| 20260502234628 | 71 | 236 | 2.6 | 4.3 | 0.00 | 0.00 | 0.00 | 21 | 1019.0 |
| 20260502234126 | 71 | 202 | 3.5 | 5.2 | 0.00 | 0.00 | 0.00 | 21 | 1018.9 |
| 20260502233621 | 73 | 39 | 1.7 | 3.5 | 0.00 | 0.00 | 0.00 | 20 | 1018.8 |
| 20260502233118 | 73 | 153 | 7.8 | 9.6 | 0.00 | 0.00 | 0.00 | 21 | 1019.0 |
| 20260502232614 | 73 | 173 | 7.0 | 8.7 | 0.00 | 0.00 | 0.00 | 21 | 1018.9 |
| 20260502232112 | 73 | 185 | 6.1 | 8.7 | 0.00 | 0.00 | 0.00 | 21 | 1018.9 |
| 20260502231608 | 72 | 160 | 6.1 | 9.6 | 0.00 | 0.00 | 0.00 | 22 | 1018.9 |
| 20260502231107 | 71 | 193 | 3.5 | 7.8 | 0.00 | 0.00 | 0.00 | 22 | 1018.9 |
| 20260502230604 | 71 | 231 | 5.2 | 6.1 | 0.00 | 0.00 | 0.00 | 21 | 1018.9 |
| 20260502225558 | 74 | 327 | 0.9 | 4.3 | 0.00 | 0.00 | 0.00 | 20 | 1019.0 |
| 20260502225055 | 74 | 327 | 4.3 | 8.7 | 0.00 | 0.00 | 0.00 | 20 | 1018.9 |
| 20260502224551 | 73 | 217 | 7.0 | 7.8 | 0.00 | 0.00 | 0.00 | 21 | 1019.1 |
| 20260502224048 | 74 | 351 | 3.5 | 8.7 | 0.00 | 0.00 | 0.00 | 20 | 1019.0 |
| 20260502223546 | 74 | 66 | 3.5 | 6.1 | 0.00 | 0.00 | 0.00 | 21 | 1019.1 |
| 20260502223044 | 74 | 356 | 2.6 | 5.2 | 0.00 | 0.00 | 0.00 | 20 | 1019.0 |
| 20260502222541 | 73 | 36 | 2.6 | 7.0 | 0.00 | 0.00 | 0.00 | 21 | 1019.1 |
| 20260502222037 | 74 | 302 | 2.6 | 6.1 | 0.00 | 0.00 | 0.00 | 21 | 1019.2 |
| 20260502221533 | 73 | 324 | 6.1 | 7.0 | 0.00 | 0.00 | 0.00 | 21 | 1019.2 |
| 20260502221031 | 74 | 314 | 9.6 | 9.6 | 0.00 | 0.00 | 0.00 | 21 | 1019.2 |
| 20260502220526 | 75 | 312 | 6.1 | 7.0 | 0.00 | 0.00 | 0.00 | 20 | 1019.4 |
| 20260502220024 | 73 | 51 | 6.1 | 7.8 | 0.00 | 0.00 | 0.00 | 22 | 1019.4 |
| 20260502215521 | 70 | 358 | 6.1 | 7.0 | 0.00 | 0.00 | 0.00 | 22 | 1019.5 |
| 20260502215017 | 71 | 359 | 3.5 | 7.8 | 0.00 | 0.00 | 0.00 | 21 | 1019.2 |
| 20260502214515 | 74 | 326 | 6.1 | 7.0 | 0.00 | 0.00 | 0.00 | 20 | 1019.6 |
| 20260502214012 | 73 | 327 | 2.6 | 6.1 | 0.00 | 0.00 | 0.00 | 21 | 1019.7 |
| 20260502213508 | 72 | 315 | 5.2 | 10.4 | 0.00 | 0.00 | 0.00 | 21 | 1019.6 |
| 20260502213007 | 73 | 315 | 5.2 | 6.1 | 0.00 | 0.00 | 0.00 | 20 | 1019.9 |
| 20260502212505 | 73 | 228 | 1.7 | 6.1 | 0.00 | 0.00 | 0.00 | 21 | 1019.8 |
| 20260502212002 | 72 | 212 | 7.0 | 10.4 | 0.00 | 0.00 | 0.00 | 21 | 1019.8 |
| 20260502211457 | 72 | 258 | 4.3 | 6.1 | 0.00 | 0.00 | 0.00 | 22 | 1019.9 |
| 20260502210955 | 72 | 219 | 8.7 | 10.4 | 0.00 | 0.00 | 0.00 | 21 | 1020.1 |
| 20260502210452 | 72 | 224 | 4.3 | 8.7 | 0.00 | 0.00 | 0.00 | 23 | 1020.2 |
| 20260502205949 | 73 | 204 | 5.2 | 9.6 | 0.00 | 0.00 | 0.00 | 21 | 1020.1 |
| 20260502205445 | 73 | 115 | 1.7 | 4.3 | 0.00 | 0.00 | 0.00 | 21 | 1020.0 |
| 20260502204942 | 72 | 258 | 1.7 | 5.2 | 0.00 | 0.00 | 0.00 | 21 | 1020.2 |
| 20260502204439 | 70 | 257 | 3.5 | 4.3 | 0.00 | 0.00 | 0.00 | 23 | 1020.5 |
| 20260502203937 | 70 | 211 | 7.8 | 13.0 | 0.00 | 0.00 | 0.00 | 23 | 1020.2 |
| 20260502203434 | 73 | 235 | 6.1 | 10.4 | 0.00 | 0.00 | 0.00 | 22 | 1020.6 |
| 20260502202930 | 74 | 284 | 2.6 | 8.7 | 0.00 | 0.00 | 0.00 | 22 | 1020.5 |
| 20260502202427 | 71 | 172 | 0.9 | 5.2 | 0.00 | 0.00 | 0.00 | 22 | 1020.4 |
| 20260502201925 | 71 | 232 | 7.8 | 12.2 | 0.00 | 0.00 | 0.00 | 22 | 1020.6 |
| 20260502201421 | 72 | 216 | 5.2 | 6.1 | 0.00 | 0.00 | 0.00 | 22 | 1020.6 |
| 20260502200918 | 73 | 154 | 6.1 | 7.8 | 0.00 | 0.00 | 0.00 | 21 | 1020.7 |
| 20260502200414 | 72 | 150 | 6.1 | 9.6 | 0.00 | 0.00 | 0.00 | 21 | 1020.6 |
| 20260502195912 | 71 | 249 | 3.5 | 9.6 | 0.00 | 0.00 | 0.00 | 23 | 1020.6 |
| 20260502195408 | 72 | 202 | 13.0 | 18.2 | 0.00 | 0.00 | 0.00 | 22 | 1020.7 |
| 20260502194905 | 70 | 201 | 7.0 | 8.7 | 0.00 | 0.00 | 0.00 | 22 | 1020.7 |
| 20260502194402 | 72 | 245 | 5.2 | 10.4 | 0.00 | 0.00 | 0.00 | 23 | 1020.7 |
| 20260502193857 | 71 | 189 | 5.2 | 7.8 | 0.00 | 0.00 | 0.00 | 22 | 1020.9 |
| 20260502193355 | 71 | 228 | 2.6 | 4.3 | 0.00 | 0.00 | 0.00 | 23 | 1020.7 |
| 20260502192850 | 70 | 262 | 0.9 | 5.2 | 0.00 | 0.00 | 0.00 | 23 | 1021.0 |
| 20260502192347 | 71 | 313 | 4.3 | 5.2 | 0.00 | 0.00 | 0.00 | 23 | 1021.1 |
| 20260502191844 | 71 | 225 | 2.6 | 4.3 | 0.00 | 0.00 | 0.00 | 23 | 1021.2 |
| 20260502191343 | 71 | 66 | 4.3 | 5.2 | 0.00 | 0.00 | 0.00 | 23 | 1021.0 |
| 20260502190839 | 71 | 20 | 4.3 | 5.2 | 0.00 | 0.00 | 0.00 | 23 | 1021.4 |
| 20260502190337 | 69 | 163 | 2.6 | 7.8 | 0.00 | 0.00 | 0.00 | 24 | 1021.2 |
| 20260502185832 | 69 | 223 | 1.7 | 11.3 | 0.00 | 0.00 | 0.00 | 24 | 1021.2 |